Location: Franzen
(48.6167°N, 15.3833°E)
Time: 08:07:45
(UTC+00:00)

Cosmos 1709 Rocket - Pass Details

Date: 06 August 2021
Orbit: 947 x 1002 km, 82.9° (Epoch: 18 September)

Event Time Altitude Azimuth Distance (km) Brightness Sun altitude
Exits shadow 01:10:54 - 272° (W) 3,233 6.4 -18.9°
Reaches altitude 10° 01:14:32 10° 301° (WNW) 2,782 6.4 -18.6°
Maximum altitude 01:15:20 10° 308° (NW) 2,766 6.4 -18.5°
Drops below altitude 10° 01:16:09 10° 316° (NW) 2,784 6.5 -18.4°
Sets 01:21:58 0° 357° (N) 3,740 7.9 -17.9°
